Regional Weather Roundup
Issued by NWS

Home | Current Version | Previous Version | Graphics & Text | Print | Product List | Glossary On
Versions: 1 2 3 4 5 6 7 8 9 10 11 12 13 14 15 16 17 18 19 20 21 22 23 24 25 26 27 28 29 30 31 32 33 34 35 36
000
ASUS45 KBOU 270207
RWRCO

WEATHER ROUNDUP FOR COLORADO
NATIONAL WEATHER SERVICE DENVER/BOULDER CO
700 PM MST FRI DEC 26 2014

NOTE: "FAIR" INDICATES FEW OR NO CLOUDS BELOW 12000 FEET WITH NO
SIGNIFICANT WEATHER AND/OR OBSTRUCTIONS TO VISIBILITY.

COZ001>005-013-030-031-270300-
...NORTHWEST COLORADO...

CITY           SKY/WX    TMP DP  RH WIND       PRES   REMARKS
CRAIG          LGT SNOW  14  10  84 SW12      29.99R FOG     WCI   0
HAYDEN         CLOUDY    12   9  85 W6        29.95R WCI   3
MEEKER         CLOUDY    15  10  80 W3        29.98R
MOUNT WERNER   NOT AVBL
STEAMBOAT SPGS CLOUDY    13  10  87 S5        29.94R WCI   5
WALDEN         CLOUDY    10   5  79 NW9       29.86R WCI  -2
$$

COZ006>008-011-270300-
...WEST CENTRAL VALLEYS...

CITY           SKY/WX    TMP DP  RH WIND       PRES   REMARKS
GRAND JUNCTION CLOUDY    23  18  81 CALM      30.03R
MONTROSE       CLOUDY    23  17  78 NW9       30.00R WCI  13
EAGLE          FLURRIES  19  14  79 W14       29.93  WCI   6
RIFLE          CLOUDY    21   9  59 NW14      30.01R WCI   8
DELTA          CLOUDY    29  14  52 W12       29.98R WCI  20
NUCLA          CLOUDY    23  16  74 W3        30.02R
$$

COZ017>023-064>068-270300-
...SOUTHWEST COLORADO...

CITY           SKY/WX    TMP DP  RH WIND       PRES   REMARKS
DURANGO        PTCLDY    18  14  84 SW8       29.91R WCI   8
CORTEZ         CLOUDY    24  16  71 NW9       29.98R WCI  14
PAGOSA SPRINGS LGT SNOW  20  17  86 S6        29.90R WCI  13
TELLURIDE      LGT SNOW  13   9  83 W9        29.87R WCI   1
WOLF CREEK PAS CLOUDY     1   0  92 MISG      29.75R
$$

COZ009-010-012-014-032>034-037-058>063-270300-
...CENTRAL COLORADO...

CITY           SKY/WX    TMP DP  RH WIND       PRES   REMARKS
ASPEN          LGT SNOW  15  10  80 N5        29.87R WCI   8
BUENA VISTA    LGT SNOW  11   8  87 CALM      29.87R
COPPER MTN     LGT SNOW   7   0  72 W18       29.70R WCI -12
BERTHOUD PASS  LGT SNOW  -2  -8  78 MISG      29.67S VSB 1
COTTONWOOD PAS LGT SNOW   9   3  78 CALM      29.79R
GUNNISON       PTCLDY     9   1  72 CALM      29.89R
KREMMLING      CLOUDY    18   5  57 N10       29.90R WCI   6
LEADVILLE      CLOUDY     3  -1  83 CALM      29.77R FOG
MONARCH PASS   LGT SNOW   3   0  85 MISG      29.81R VSB 1
SALIDA         MOCLDY     7   2  83 SW8       29.97R WCI  -6
SUNLIGHT       LGT SNOW N/A N/A N/A SW3       29.80R
WILKERSON PASS MOCLDY     0  -6  78 SW6       29.75R WCI -12
$$

COZ069>075-270300-
...SAN LUIS VALLEY/SANGRE DE CRISTO MOUNTAINS...

CITY           SKY/WX    TMP DP  RH WIND       PRES   REMARKS
ALAMOSA        CLOUDY    16  12  84 CALM      29.86R
LA VETA PASS   NOT AVBL
SAGUACHE       MOCLDY     1  -2  85 N3        29.86R
$$

COZ035-036-038>040-270300-
...NORTHERN COLORADO FRONT RANGE...

CITY           SKY/WX    TMP DP  RH WIND       PRES   REMARKS
DENVER INTL AP LGT SNOW  13  11  92 N5        30.02R FOG     WCI   5
DMNS CITY PARK   N/A     14  12  90 NE2       30.03R
AURORA         LGT SNOW  13  12  96 N2        30.02R
FRONT RANGE AP FLURRIES  16  14  93 NW5       30.02R WCI   9
ERIE MUNI ARPT LGT SNOW  16  15  93 CALM      30.04R
BOULDER MUN AP LGT SNOW  18  16  93 CALM      30.03R
CENTENNIAL     LGT SNOW  14  11  87 CALM      29.99R FOG
BROOMFIELD     NOT AVBL
FORT COLLINS   MOCLDY    16  12  86 CALM      30.05R
LONGMONT       LGT SNOW  19  16  88 CALM      30.06R
$$

COZ041-046-047-076>085-087-088-270300-
...PIKES PEAK/PALMER DIVIDE AND SOUTHERN FOOTHILLS...

CITY           SKY/WX    TMP DP  RH WIND       PRES   REMARKS
COLO. SPRINGS  LGT SNOW  18  11  74 W7        29.96R WCI   9
A. F. ACADEMY  CLOUDY    14   7  73 N10       29.94R WCI   1
ELLICOTT       NOT AVBL
FALCON         CLOUDY    13   7  77 N8        29.93R WCI   2
FORT CARSON    FLURRIES  18  12  78 S6        29.97R WCI   9
LIMON          CLOUDY    10   8  92 N8        30.01R WCI  -2
MONUMENT HILL  LGT SNOW   5   5 100 CALM      29.92R
TRINIDAD       CLOUDY    11   8  88 SW5       30.00R WCI   3
$$

COZ042>045-048>051-090-091-270300-
...NORTHEAST COLORADO...

CITY           SKY/WX    TMP DP  RH WIND       PRES   REMARKS
GREELEY ARPT   MOCLDY    12   7  79 N3        30.05R
AKRON          LGT SNOW  12  11  95 N7        30.04R FOG     WCI   1
BURLINGTON     FLURRIES  16  13  88 N8        30.05R WCI   5
WRAY           LGT SNOW  19  17  89 NW9       30.08R WCI   9
STERLING       LGT SNOW  19  19 100 CALM      30.08R
HOLYOKE        LGT SNOW  21  19  93 N8        30.08R WCI  12
FORT MORGAN    LGT SNOW  15  12  90 CALM      30.07R
$$

COZ086-089-092>099-270300-
...SOUTHEAST COLORADO...

CITY           SKY/WX    TMP DP  RH WIND       PRES   REMARKS
PUEBLO         CLOUDY    21  15  78 E8        30.04R WCI  11
LA JUNTA       CLEAR     14  10  84 N6        30.07R WCI   5
LAMAR          CLOUDY    20  17  88 N3        30.08R
SPRINGFIELD      N/A     20  17  88 N7        30.06R WCI  11
$$



USA.gov is the U.S. government's official web portal to all federal, state and local government web resources and services.